Location: Austin
(30.3000°N, 97.7500°W)
Time: 22:26:48
(UTC-06:00)

IRS-1D - Pass Details

Date: 03 December 2025
Orbit: 735 x 812 km, 98.8° (Epoch: 07 December)

Event Time Altitude Azimuth Distance (km) Brightness Sun altitude
Rises 05:55:03 0° 3° (N) 3,186 6.6 -16.3°
Reaches altitude 10° 05:57:26 10° 356° (N) 2,267 5.7 -15.8°
Maximum altitude 06:02:03 40° 288° (WNW) 1,100 3.8 -14.8°
Drops below altitude 10° 06:06:45 10° 219° (SW) 2,297 5.8 -13.9°
Sets 06:09:11 0° 212° (SSW) 3,233 6.6 -13.4°
